Погода в Чардаре

Погода в Чардаре : погода сейчас, прогноз погоды и архив. Всё, что Вы хотите узнать о погоде в Чардаре!

Хотите узнать прогноз погоды в Чардаре? Тогда Вам сюда: Погода в Чардаре

Поиск расширенной информации на нашем сайте:

Другие новости

Новости СМИ2

Главная страница сайта

Новости сайта

03.07.2017

Напоминаем, что на нашем специализированном сайте Метеоцентр.Азия вы можете получить высокодетализированные автоматические прогнозы погоды по пунктам России, СНГ и мира в авиационном формате (включающие направление и скорость ветра, видимость, явления погоды, количество и форму облачности, нижнюю и верхнюю границу облачности).


Погода в Чардаре - сегодня

Время (UTC), дата Ветер
(°,м/с) 
Видим.   Явления Облачность Т
(°С)
Тd
(°С)
f(%) Тe
(°С)
Pmin
(гПа)
dP
(гПа)
Po
(мм)
O2
(г/м3)
Тmin Tmax R s Состояние
почвы
18 12.02.18 150 (ЮВ) 20000 м    ясно 
+3 -5.8 52 +2  1015.2  -1.2  736  294    +9.1       
21 12.02.18 140 (ЮВ) 20000 м    4/0 верхняя 
[Ci sp]
+1.8 -3.6 67 1014.4  -0.9  735  295           
00 13.02.18 160 (Ю) 20000 м    5/0 верхняя 
[Ci sp]
+2.6 -3.3 65 1014.2  -0.1  735  294           
06 13.02.18 170 (Ю) 10 км    10/5 600 м средняя 
[Sc|Ac As]
+3.8 -3.9 57 +1  1014.9  1.3  736  293  +1.6         
09 13.02.18 170 (Ю) 20000 м  {дождь}  10/10 600 м 
[Sc]
+5.6 +2.2 79 +3  1013.2  -1.4  735  290           
12 13.02.18 170 (Ю) 20000 м    10/10 600 м 
[Sc]
+5.8 -1.2 61 +3  1012.7  -0.4  735  290           
21 13.02.18 180 (Ю) 20000 м    10/10 600 м 
[Sc]
+6.2 +4.1 86 +7  1016.6  1.6  737  290           
00 14.02.18 150 (ЮВ) 20000 м    10/10 600 м 
[Sc]
+6.6 +4.3 85 +6  1016.9  0.3  738  289           
03 14.02.18 020 (С) 2000 м  дымка  10/10 600 м 
[Sc]
+1.6 +0.2 90 -1  1018.5  738  296      0.9     
09 14.02.18 360 (С) 4000 м  дождь  10/10 600 м 
[Ns]
+0.6 -0.5 92 -2  1017.5  737  297           
21 14.02.18 350 (С) 0500 м  сильн. снег{дождь}  10/10 600 м 
[Ns]
-2 -3.2 91 -5  1021.7  1.6  740  301           
03 15.02.18 340 (С) 20000 м  в посл. час снег  10/10 600 м 
[Sc]
-5.2 -6.6 90 -10  1028.4  4.6  745  307      22  12  равномерный
мокрый или
старый снег
100% 
09 15.02.18 350 (С) 20000 м    10/8 600 м средняя 
[Sc|Ac As]
-3.4 -8.5 68 -3  1035.4  2.8  750  307           
12 15.02.18 350 (С) 20000 м    10/3 600 м средняя 
[Sc|Ac As]
-4.2 -7.2 80 -4  1037.5  1.9  752  308           
15 15.02.18 тихо ()   20000 м    8/3 600 м средняя 
[Sc|Ac lent]
-5.7 -7.9 84 -6  1038.7  752  310    -1.9       
21 15.02.18 360 (С) 4000 м  дымка  4/0 
-8.6 -10.5 86 -8    50.2             
06 16.02.18 тихо ()   0500 м  туман  ?/?  
-5.1 -5.8 95 -5  1039.3  0.7  753  310  -11.6         
09 16.02.18 010 (С) 4000 м  дымка{туман}  6/3 600 м верхняя 
[Sc|Ci sp]
-2.8 -5.1 84 -2  1038.2  -0.6  752  307           
15 16.02.18 270 (З) 20000 м    3/0 верхняя 
[Ci sp]
-4 -7.7 75 -4  1038.7  0.6  752  309    -0.5       
18 16.02.18 350 (С) 20000 м    ясно 
-5.1 -8.3 78 -5  1038.4  -0.5  752  310    -0.5       
21 16.02.18 020 (С) 20000 м    ясно 
-6.4 -8.7 84 -6  1037.8  -0.7  752  311           
00 17.02.18 тихо ()   4000 м  дымка  ясно 
-9.8 -11.9 85 -10  1038.4  752  315           
03 17.02.18 030 (СВ) 4000 м  дымка  8/0 верхняя 
[Ci sp]
-9.4 -11.5 85 -9  1038.6  -0.4  752  315        12  равномерный
мокрый или
старый снег
100% 
06 17.02.18 тихо ()   0200 м  туман  ?/?  
-5.9 -7.8 86 -6  1038  -0.4  752  310  -10.4         
09 17.02.18 190 (Ю) 2000 м  дымка{туман}  5/0 
-2.8 -4.4 89 -4    -1.5             
Время (UTC), дата Ветер
(°,м/с) 
Видим.   Явления Облачность Т
(°С)
Тd
(°С)
f(%) Тe
(°С)
Pmin
(гПа)
dP
(гПа)
Po
(мм)
O2
(г/м3)
Тmin Tmax R s Состояние
почвы

Для получения пояснительной информации подведите курсор к названию столбца.

ПОГОДА в Чардаре - архив

Всё, что Вы хотите узнать о погоде в Чардаре - удобно и подробно!

Выберите нужную дату (начиная с 1 января 2015* года) и нажмите кнопку "Найти".
Будут отображены архивные сводки погоды по пункту Чардара, начиная с указанной даты.


Отображать данные в формате CSV (для использования в таблицах Excel)


Внимание! Наш архив погоды предназначен исключительно для личного некоммерческого использования в познавательных целях. Если Вам необходимы официальные справки о состоянии погоды (для производственных, юридических, коммерческих и т.п. целей), обращайтесь в органы Росгидромета.

*Примечание: данная дата относится к архиву по метеостанциям СССР (Россия, СНГ, Балтия).
Архив по метеостанциям Зарубежной Европы и Азии (кроме Китая) хранится 10 дней, по другим регионам земного шара (Китай, Африка, Америка, Австралия, Океания) - 1 день.

Чардара - район местоположения метеостанции


Название, широта, долгота, высота метеостанции:
Чардара 41.4°ш. 68°д. 275 м над ур. моря [Казахстан]

Дополнительная информация

В oтличие oт бoльшинства пoгoдных сайтoв мы публикуем пoдрoбную метеoинфoрмацию в детальнoм прoфессиoнальнoм фoрмате.

Характеристики температуры и влажнoсти вoздуха измеряются на высoте 2 м в тени вдали oт зданий и деревьев.
Скoрoсть ветра измеряется на высoте 10 м (на урoвне рoста челoвека скoрoсть ветра ниже в 1.5-2 раза). Если метеoстанция нахoдится в гoрoде или в лесу, тo скoрoсть ветра занижена на 2-4 м/с пo сравнению с oткрытым местoм. Скoрoсть ветра над акватoриями крупных рек и oзёр, а также на вершинах хoлмoв на 2-5 м/с выше, чем в oбычных услoвиях.
Атмoсфернoе давление в разных тoчках местнoсти мoжет значительнo oтличаться oт давления на метеoстанции, в зависимoсти oт услoвий рельефа (при пoдъёме на 10 м давление пoнижается примернo на 1 мм рт.ст.).